�������l�o���
Date,Time,MP-1(��Sv/h),MP-2(��Sv/h),MP-3(��Sv/h),MP-4(��Sv/h),MP-5(��Sv/h),MP-6(��Sv/h),MP-7(��Sv/h),����,����(m/s),���J
2024/02/05,00:00,0.150,0.134,0.214,0.202,0.208,0.121,0.077,���k��,1.6,��
2024/02/05,00:10,0.149,0.134,0.212,0.203,0.209,0.119,0.077,���k��,2.4,��
2024/02/05,00:20,0.149,0.133,0.214,0.202,0.208,0.119,0.077,�k��,2.0,��
2024/02/05,00:30,0.150,0.134,0.213,0.202,0.207,0.118,0.078,���k��,1.4,��
2024/02/05,00:40,0.149,0.133,0.213,0.203,0.208,0.120,0.077,�쐼,2.3,��
2024/02/05,00:50,0.150,0.134,0.214,0.202,0.208,0.119,0.078,��,1.9,��
2024/02/05,01:00,0.150,0.132,0.213,0.202,0.208,0.119,0.077,��,2.2,��
2024/02/05,01:10,0.151,0.133,0.213,0.202,0.208,0.120,0.078,��,2.7,��
2024/02/05,01:20,0.149,0.133,0.212,0.202,0.208,0.120,0.078,���k��,3.0,��
2024/02/05,01:30,0.150,0.133,0.213,0.202,0.208,0.119,0.077,�k��,1.7,��
2024/02/05,01:40,0.150,0.133,0.213,0.202,0.208,0.120,0.077,�k�k��,1.1,��
2024/02/05,01:50,0.149,0.134,0.213,0.202,0.208,0.119,0.077,�k�k��,2.1,��
2024/02/05,02:00,0.150,0.133,0.214,0.200,0.209,0.119,0.078,�k��,2.4,��
2024/02/05,02:10,0.150,0.133,0.212,0.202,0.208,0.119,0.077,�k��,2.6,��
2024/02/05,02:20,0.150,0.133,0.213,0.202,0.208,0.119,0.077,�k��,2.8,��
2024/02/05,02:30,0.150,0.133,0.213,0.202,0.208,0.120,0.078,�k��,3.4,��
2024/02/05,02:40,0.150,0.134,0.213,0.202,0.208,0.119,0.077,�k��,4.6,��
2024/02/05,02:50,0.148,0.133,0.213,0.201,0.208,0.120,0.077,���k��,4.4,��
2024/02/05,03:00,0.149,0.133,0.214,0.202,0.208,0.119,0.078,���k��,6.0,��
2024/02/05,03:10,0.149,0.133,0.213,0.201,0.208,0.119,0.078,���k��,6.5,��
2024/02/05,03:20,0.150,0.133,0.213,0.202,0.207,0.119,0.077,��,6.7,��
2024/02/05,03:30,0.151,0.132,0.212,0.202,0.208,0.119,0.077,���k��,5.7,��
2024/02/05,03:40,0.149,0.134,0.212,0.202,0.208,0.118,0.077,���k��,3.2,��
2024/02/05,03:50,0.150,0.133,0.212,0.202,0.208,0.119,0.077,���k��,1.8,��
2024/02/05,04:00,0.150,0.133,0.212,0.203,0.208,0.119,0.077,�k��,3.3,��
2024/02/05,04:10,0.150,0.132,0.212,0.202,0.207,0.119,0.077,���k��,4.4,��
2024/02/05,04:20,0.150,0.133,0.212,0.203,0.208,0.120,0.078,���k��,7.5,��
2024/02/05,04:30,0.149,0.134,0.213,0.202,0.208,0.119,0.077,���k��,9.7,��
2024/02/05,04:40,0.150,0.133,0.213,0.201,0.209,0.119,0.077,���k��,12.6,��
2024/02/05,04:50,0.149,0.132,0.213,0.201,0.208,0.118,0.077,���k��,11.7,��
2024/02/05,05:00,0.150,0.132,0.213,0.202,0.207,0.119,0.077,���k��,10.6,��
2024/02/05,05:10,0.150,0.133,0.213,0.202,0.209,0.119,0.077,���k��,8.7,��
2024/02/05,05:20,0.150,0.133,0.212,0.202,0.207,0.119,0.077,���k��,8.1,��
2024/02/05,05:30,0.149,0.133,0.213,0.200,0.207,0.119,0.077,���k��,7.1,��
2024/02/05,05:40,0.149,0.134,0.213,0.202,0.208,0.118,0.077,���k��,7.0,��
2024/02/05,05:50,0.150,0.133,0.213,0.203,0.208,0.119,0.078,�k��,5.0,��
2024/02/05,06:00,0.150,0.133,0.212,0.201,0.209,0.118,0.077,�k��,3.9,��
2024/02/05,06:10,0.149,0.133,0.213,0.202,0.208,0.119,0.077,���k��,3.9,��
2024/02/05,06:20,0.149,0.132,0.213,0.202,0.208,0.118,0.077,�k��,3.6,��
2024/02/05,06:30,0.149,0.134,0.212,0.202,0.208,0.119,0.077,�k��,1.5,��
2024/02/05,06:40,0.148,0.133,0.214,0.202,0.208,0.118,0.077,�k��,1.4,��
2024/02/05,06:50,0.149,0.132,0.212,0.202,0.208,0.119,0.077,�k��,1.4,��
2024/02/05,07:00,0.149,0.133,0.212,0.202,0.208,0.118,0.077,�k�k��,3.2,��
2024/02/05,07:10,0.148,0.133,0.213,0.202,0.208,0.120,0.077,�k��,3.6,��
2024/02/05,07:20,0.150,0.133,0.213,0.201,0.208,0.119,0.077,�k�k��,3.9,��
2024/02/05,07:30,0.149,0.133,0.211,0.202,0.208,0.118,0.077,�k�k��,5.2,��
2024/02/05,07:40,0.149,0.133,0.213,0.202,0.209,0.119,0.077,�k�k��,5.6,��
2024/02/05,07:50,0.150,0.134,0.213,0.202,0.207,0.119,0.077,�k,4.6,��
2024/02/05,08:00,0.150,0.134,0.212,0.202,0.209,0.119,0.077,�k�k��,3.8,��
2024/02/05,08:10,0.150,0.133,0.213,0.202,0.208,0.119,0.078,�k�k��,2.9,��
2024/02/05,08:20,0.150,0.133,0.213,0.201,0.207,0.119,0.077,�k�k��,4.1,��
2024/02/05,08:30,0.149,0.133,0.213,0.201,0.208,0.120,0.077,�k�k��,4.0,��
2024/02/05,08:40,0.150,0.133,0.213,0.203,0.208,0.119,0.077,�k�k��,4.2,��
2024/02/05,08:50,0.149,0.133,0.212,0.202,0.209,0.119,0.077,�k�k��,3.5,��
2024/02/05,09:00,0.149,0.133,0.212,0.202,0.208,0.120,0.077,�k�k��,2.9,��
2024/02/05,09:10,0.149,0.133,0.213,0.201,0.208,0.120,0.077,�k��,2.0,��
2024/02/05,09:20,0.150,0.133,0.213,0.202,0.208,0.119,0.078,�k��,1.4,��
2024/02/05,09:30,0.150,0.134,0.213,0.203,0.209,0.119,0.078,�k��,1.3,��
2024/02/05,09:40,0.149,0.133,0.212,0.202,0.209,0.119,0.078,�k�k��,1.4,��
2024/02/05,09:50,0.150,0.133,0.213,0.202,0.207,0.119,0.077,�k�k��,1.2,��
2024/02/05,10:00,0.150,0.133,0.214,0.200,0.209,0.118,0.077,�k,1.3,��
2024/02/05,10:10,0.150,0.133,0.212,0.202,0.208,0.119,0.077,�k,1.2,��
2024/02/05,10:20,0.149,0.134,0.213,0.201,0.209,0.119,0.077,�k,2.3,��
2024/02/05,10:30,0.150,0.134,0.212,0.201,0.208,0.120,0.077,�k,2.5,��
2024/02/05,10:40,0.150,0.134,0.213,0.201,0.209,0.119,0.077,�k�k��,2.6,��
2024/02/05,10:50,0.150,0.133,0.213,0.203,0.209,0.119,0.077,�k�k��,2.6,��
2024/02/05,11:00,0.150,0.133,0.214,0.203,0.209,0.120,0.077,�k�k��,3.0,��
2024/02/05,11:10,0.150,0.133,0.213,0.201,0.208,0.120,0.077,�k,2.7,��
2024/02/05,11:20,0.149,0.133,0.213,0.202,0.208,0.119,0.077,�k,2.9,��
2024/02/05,11:30,0.150,0.134,0.212,0.203,0.208,0.118,0.077,�k,2.7,��
2024/02/05,11:40,0.150,0.134,0.213,0.201,0.208,0.119,0.076,�k�k��,4.3,��
2024/02/05,11:50,0.149,0.135,0.212,0.201,0.209,0.119,0.076,�k�k��,4.1,��
2024/02/05,12:00,0.148,0.134,0.212,0.203,0.208,0.119,0.077,�k�k��,3.5,��
2024/02/05,12:10,0.150,0.133,0.213,0.201,0.207,0.119,0.076,�k�k��,2.8,��
2024/02/05,12:20,0.150,0.133,0.213,0.202,0.209,0.119,0.076,�k,3.6,��
2024/02/05,12:30,0.148,0.133,0.211,0.202,0.208,0.119,0.077,�k,3.3,��
2024/02/05,12:40,0.150,0.133,0.213,0.203,0.208,0.119,0.078,�k�k��,3.7,��
2024/02/05,12:50,0.150,0.133,0.213,0.201,0.207,0.119,0.077,�k,2.9,��
2024/02/05,13:00,0.150,0.133,0.212,0.202,0.208,0.119,0.077,�k�k��,4.0,��
2024/02/05,13:10,0.148,0.133,0.213,0.203,0.209,0.119,0.077,�k,4.6,��
2024/02/05,13:20,0.149,0.133,0.212,0.202,0.208,0.119,0.077,�k,4.5,��
2024/02/05,13:30,0.149,0.132,0.213,0.202,0.208,0.120,0.077,�k,4.1,��
2024/02/05,13:40,0.148,0.133,0.213,0.202,0.208,0.119,0.077,�k�k��,3.4,�L
2024/02/05,13:50,0.149,0.134,0.213,0.203,0.209,0.119,0.078,�k��,5.1,�L
2024/02/05,14:00,0.151,0.135,0.214,0.202,0.209,0.121,0.078,�k��,5.6,�L
2024/02/05,14:10,0.151,0.134,0.215,0.203,0.210,0.121,0.078,�k��,6.3,�L
2024/02/05,14:20,0.153,0.137,0.216,0.205,0.211,0.122,0.080,�k��,6.2,�L
2024/02/05,14:30,0.153,0.137,0.216,0.204,0.211,0.122,0.080,�k��,7.0,�L
2024/02/05,14:40,0.153,0.136,0.216,0.205,0.211,0.123,0.081,�k��,6.8,�L
2024/02/05,14:50,0.155,0.137,0.216,0.205,0.211,0.123,0.080,�k�k��,6.4,�L
2024/02/05,15:00,0.154,0.138,0.216,0.204,0.211,0.124,0.081,�k��,6.5,�L
2024/02/05,15:10,0.154,0.138,0.217,0.205,0.212,0.123,0.081,�k��,6.6,�L
2024/02/05,15:20,0.154,0.137,0.216,0.205,0.211,0.123,0.082,�k�k��,7.0,�L
2024/02/05,15:30,0.153,0.137,0.216,0.204,0.210,0.123,0.081,�k�k��,6.6,�L
2024/02/05,15:40,0.153,0.137,0.215,0.204,0.209,0.124,0.082,�k��,6.5,�L
2024/02/05,15:50,0.153,0.138,0.214,0.204,0.209,0.124,0.083,�k��,7.1,�L
2024/02/05,16:00,0.153,0.137,0.216,0.204,0.210,0.124,0.083,�k��,7.1,�L
2024/02/05,16:10,0.153,0.137,0.215,0.202,0.209,0.124,0.081,�k��,7.5,�L
2024/02/05,16:20,0.153,0.137,0.214,0.204,0.210,0.124,0.083,�k��,8.1,�L
2024/02/05,16:30,0.152,0.136,0.214,0.203,0.209,0.124,0.082,�k��,7.9,�L
2024/02/05,16:40,0.152,0.136,0.213,0.202,0.209,0.123,0.083,�k��,7.7,�L
2024/02/05,16:50,0.151,0.136,0.213,0.201,0.207,0.124,0.082,�k��,7.3,�L
2024/02/05,17:00,0.151,0.135,0.212,0.200,0.208,0.123,0.082,�k��,7.5,�L
2024/02/05,17:10,0.152,0.136,0.212,0.200,0.208,0.125,0.082,�k��,7.1,�L
2024/02/05,17:20,0.152,0.137,0.212,0.201,0.208,0.125,0.082,�k��,7.5,�L
2024/02/05,17:30,0.153,0.137,0.211,0.200,0.208,0.124,0.083,�k��,7.9,�L
2024/02/05,17:40,0.152,0.137,0.210,0.200,0.207,0.124,0.083,�k��,8.1,�L
2024/02/05,17:50,0.152,0.136,0.211,0.199,0.207,0.125,0.083,�k�k��,8.4,�L
2024/02/05,18:00,0.152,0.136,0.210,0.198,0.208,0.125,0.084,�k��,8.2,�L
2024/02/05,18:10,0.152,0.137,0.210,0.197,0.206,0.125,0.084,�k�k��,8.1,�L
2024/02/05,18:20,0.152,0.136,0.208,0.197,0.204,0.126,0.085,�k��,8.8,�L
2024/02/05,18:30,0.151,0.136,0.207,0.196,0.205,0.126,0.085,�k��,9.6,�L
2024/02/05,18:40,0.150,0.135,0.207,0.195,0.202,0.126,0.084,�k��,8.4,�L
2024/02/05,18:50,0.150,0.135,0.206,0.193,0.200,0.125,0.085,�k��,8.5,�L
2024/02/05,19:00,0.150,0.135,0.203,0.191,0.200,0.124,0.084,�k�k��,9.2,�L
2024/02/05,19:10,0.149,0.134,0.202,0.189,0.198,0.123,0.084,�k�k��,9.3,�L
2024/02/05,19:20,0.148,0.133,0.201,0.188,0.197,0.122,0.083,�k��,9.2,�L
2024/02/05,19:30,0.147,0.132,0.200,0.187,0.197,0.121,0.082,�k��,8.4,�L
2024/02/05,19:40,0.147,0.130,0.200,0.186,0.196,0.121,0.081,�k��,9.2,�L
2024/02/05,19:50,0.145,0.130,0.199,0.186,0.195,0.120,0.081,�k�k��,9.3,�L
2024/02/05,20:00,0.144,0.130,0.198,0.186,0.194,0.119,0.081,�k��,9.8,�L
2024/02/05,20:10,0.144,0.128,0.196,0.184,0.193,0.118,0.079,�k�k��,9.2,�L
2024/02/05,20:20,0.143,0.128,0.194,0.182,0.192,0.117,0.079,�k�k��,9.2,�L
2024/02/05,20:30,0.143,0.127,0.194,0.182,0.191,0.116,0.079,�k�k��,8.4,�L
2024/02/05,20:40,0.143,0.127,0.194,0.181,0.191,0.116,0.079,�k��,9.8,�L
2024/02/05,20:50,0.141,0.126,0.193,0.182,0.191,0.116,0.077,�k��,10.0,�L
2024/02/05,21:00,0.141,0.126,0.192,0.181,0.190,0.115,0.076,�k�k��,10.6,�L
2024/02/05,21:10,0.141,0.125,0.192,0.180,0.189,0.115,0.078,�k��,10.1,�L
2024/02/05,21:20,0.142,0.126,0.191,0.179,0.189,0.114,0.076,�k��,9.5,�L
2024/02/05,21:30,0.140,0.126,0.192,0.179,0.189,0.113,0.076,�k��,10.3,�L
2024/02/05,21:40,0.141,0.125,0.190,0.179,0.188,0.113,0.076,�k��,10.4,�L
2024/02/05,21:50,0.140,0.126,0.190,0.178,0.188,0.113,0.076,�k�k��,10.1,�L
2024/02/05,22:00,0.140,0.125,0.189,0.178,0.188,0.112,0.076,�k��,10.6,�L
2024/02/05,22:10,0.141,0.124,0.189,0.177,0.188,0.113,0.075,�k��,10.9,�L
2024/02/05,22:20,0.139,0.123,0.188,0.177,0.186,0.112,0.075,�k�k��,11.4,�L
2024/02/05,22:30,0.139,0.124,0.187,0.177,0.188,0.112,0.075,�k��,10.4,�L
2024/02/05,22:40,0.139,0.124,0.188,0.176,0.187,0.113,0.076,�k��,10.0,�L
2024/02/05,22:50,0.140,0.125,0.188,0.176,0.186,0.111,0.074,�k��,10.3,�L
2024/02/05,23:00,0.140,0.124,0.188,0.176,0.187,0.111,0.074,�k��,11.7,�L
2024/02/05,23:10,0.139,0.124,0.188,0.176,0.186,0.112,0.074,�k��,10.4,�L
2024/02/05,23:20,0.140,0.124,0.188,0.175,0.186,0.112,0.073,�k��,12.0,�L
2024/02/05,23:30,0.140,0.124,0.187,0.176,0.186,0.112,0.074,�k�k��,10.1,�L
2024/02/05,23:40,0.140,0.125,0.187,0.174,0.187,0.111,0.074,�k��,10.1,�L
2024/02/05,23:50,0.140,0.125,0.187,0.175,0.185,0.112,0.074,�k��,10.6,�L
